Location: ??
(31.9467°N, 34.8903°E)
Time: 17:49:19
(UTC+00:00)

Cosmos 1300 - Pass Details

Date: 29 October 2020
Orbit: 511 x 513 km, 82.5° (Epoch: 30 November)

Event Time Altitude Azimuth Distance (km) Brightness Sun altitude
Rises 15:25:29 0° 200° (SSW) 2,612 6.7 -7.5°
Reaches altitude 10° 15:27:41 10° 208° (SSW) 1,730 5.9 -8.0°
Maximum altitude 15:31:17 41° 279° (W) 761 4.2 -8.7°
Drops below altitude 10° 15:34:54 10° 350° (N) 1,742 5.4 -9.5°
Sets 15:37:08 0° 358° (N) 2,632 6.2 -9.9°
